Home > Weather > Galveston > Past weeks

Flag for USA Past Weather in Galveston, Texas, USA — Yesterday and Last 2 Weeks

Now
83 °F

Clear.


Feels Like: 92 °F
Forecast: 82 / 87 °F
Wind: 9 mph from South

Location: Scholes Field

Current Time: Jun 24, 2016 at 10:29:20 PM

Latest Report: Jun 24, 2016 at 9:52 PM


Visibility: 10 mi

Pressure: 30.02 "Hg

Humidity: 82%

Dew Point: 77 °F

Location of GalvestonLocation

Past Weather in Galveston — Graph

°F

Galveston Temperature Yesterday

Maximum temperature yesterday: 88 °F (at 1:52 PM)
Minimum temperature yesterday: 81 °F (at 5:52 AM)
Average temperature yesterday: 84 °F

High & Low Weather Summary for the Past Weeks

 TemperatureHumidityPressure
High90 °F (Jun 20, 1:52 PM)97% (Jun 12, 10:52 AM)30.21 "Hg (Jun 12, 10:52 AM)
Low71 °F (Jun 18, 7:59 PM)65% (Jun 20, 12:52 PM)29.89 "Hg (Jun 14, 2:52 AM)
Average84 °F81%30.02 "Hg
* Reported Jun 9 8:52 PM — Jun 24 8:52 PM, Galveston, Weather by CustomWeather, © 2016

Note: Actual official high and low records may vary slightly from our data, if they occured in-between our weather recording intervals... More about our weather records

Advertising

Galveston Weather History for the Previous 24 Hours

Scroll right to see more
 ConditionsComfort  
Time TempWeatherWind HumidityBarometerVisibility
8:52 PM
Fri, Jun 24
84 °FPassing clouds.13 mph80%30.01 "Hg10 mi
7:52 PM82 °FSunny.12 mph85%30.01 "Hg10 mi
6:52 PM83 °FSunny.12 mph85%30.01 "Hg10 mi
5:52 PM87 °FSunny.9 mph72%30.01 "Hg10 mi
4:52 PM87 °FSunny.12 mph72%30.03 "Hg10 mi
3:52 PM86 °FSunny.13 mph75%30.04 "Hg10 mi
2:52 PM86 °FSunny.13 mph80%30.06 "Hg10 mi
1:52 PM86 °FPassing clouds.13 mph80%30.07 "Hg10 mi
12:52 PM88 °FScattered clouds.10 mph70%30.08 "Hg10 mi
11:52 AM84 °FScattered clouds.12 mph80%30.10 "Hg10 mi
10:52 AM85 °FScattered clouds.10 mph77%30.10 "Hg10 mi
9:52 AM86 °FScattered clouds.10 mph72%30.10 "Hg10 mi
8:52 AM85 °FScattered clouds.8 mph77%30.09 "Hg10 mi
7:52 AM79 °FScattered clouds.No wind90%30.06 "Hg10 mi
6:52 AM81 °FPartly cloudy.15 mph85%30.06 "Hg10 mi
5:52 AM80 °FPassing clouds.No wind81%30.05 "Hg10 mi
4:52 AM81 °FPassing clouds.8 mph82%30.05 "Hg10 mi
3:52 AM81 °FPassing clouds.7 mph82%30.04 "Hg10 mi
2:52 AM82 °FClear.12 mph79%30.04 "Hg10 mi
1:52 AM82 °FPassing clouds.12 mph79%30.04 "Hg10 mi
12:52 AM83 °FClear.10 mph74%30.05 "Hg10 mi
11:52 PM
Thu, Jun 23
83 °FPassing clouds.15 mph77%30.05 "Hg10 mi
10:52 PM83 °FPassing clouds.13 mph79%30.05 "Hg10 mi
Weather by CustomWeather, © 2016

See weather overviewHow to use our weather pages